* Astronomy

Members Login
Post Info TOPIC: Asteroid 2010 GV147


L

Posts: 131433
Date:
RE: Asteroid 2010 GV147
Permalink  
 


Orbital elements:
2010 GV147                                               Earth MOID = 0.3176 AU
Epoch 2011 Feb. 8.0 TT = JDT 2455600.5                  MPC
M 183.38280              (2000.0)            P               Q
n   1.04975406     Peri.   97.87984     +0.58616376     -0.51036105
a   0.9588360      Node   295.16214     +0.11767579     +0.82204961
e   0.6603695      Incl.   44.04398     +0.80160118     +0.25251936
P   0.94           H   18.5           G   0.15           U   4

MPEC 2011 - J48



__________________


L

Posts: 131433
Date:
Permalink  
 

Orbital elements:
2010 GV147 Earth MOID = 0.3233 AU
Epoch 2010 July 23.0 TT = JDT 2455400.5 MPC
M 333.56886 (2000.0) P Q
n 1.03535435 Peri. 97.20917 +0.58335329 -0.51532077
a 0.9677059 Node 295.97895 +0.11327538 +0.81701884
e 0.6667207 Incl. 44.29684 +0.80428081 +0.25869814
P 0.95 H 18.6 G 0.15 U 9

MPEC 2010 - H32


__________________
Page 1 of 1  sorted by
Quick Reply

Please log in to post quick replies.



Create your own FREE Forum
Report Abuse
Powered by ActiveBoard